THOR ABLESTAR DEB, 351

Orbit data source: Space-Track

THOR ABLESTAR DEB, 351 is space debris in LEO originally from a launch on Thu, 29 Jun 1961 UTC launched from the Air Force Eastern Test Range (AFETR). Debris objects in space refer to the collection of defunct objects orbiting the Earth. Examples of debris include non-operational satellites, rocket bodies, and fragments generated from explosions, collisions, or faulty payload assembly.

Loading next visibility...
Identifier
351, 1961-015DR
Orbit
LEO
Country
Flag of USUS
Related business
Manufacturer
Unknown
Mission
Spacecraft
Bus & Motor
Unknown
Mass
Unknown
Launch date (UTC)
1961-06-29 (65 years ago)
Launch vehicle
Unknown
Launch site
Air Force Eastern Test Range (AFETR)
Object type
Payload
Rocket body
Debris
Shape & HBR
Unknown shape, 0.1 m
Radar Cross Section
Small (<0.1 m²)

Expand to show TLE details & history
Last TLE update: 5 hours ago

TLE from 5 hours ago
0 THOR ABLESTAR DEB
1 00351U 61015DR  26105.57025757  .00004820  00000-0  56837-3 0  9990
2 00351  66.7392 264.6153 0024609 346.5693  13.4775 14.85451567368435
Epoch: 2026-04-15T13:41Z
TLE epoch observation values (Epoch: 2026-04-15T13:41:10.254Z)
Latitude
-0.00003°
Longitude
-144.4077°
Altitude
597.605 km
Speed
7.57 km/s
True Right ascension
17h 38m 27s
True Declination
0° 00' 00"
Sunlit
Object was in full shadow at epoch
Visualization orbit readout
Latitude
Unknown
Longitude
Unknown
Altitude
Unknown
Speed
Unknown
Apparent Right ascension
Unknown
Apparent Declination
Unknown
Sunlit
N/A
Visualization observer readout
Local Sidereal Time
01:44:57
Azimuth
Unknown
Elevation
Unknown
Doppler factor
Unknown
Orbital elements
Apogee altitude
627.695 km
Perigee altitude
593.299 km
Semi-major axis
6,988.634 km
Eccentricity
0.00246
Inclination
66.7392°
RAAN
264.6153°
Arg. of periapsis
346.5693°
True anomaly
13.54342°
Mean anomaly
13.4775°
Eccentric anomaly
13.51044°
Mean motion
3.71496 °/min
Orbital period
96.91 mins
BSTAR
0.00056837
Loading maneuver chart data...
Computing Atmospheric mass density...

Documentation

Showing up to 5 results
|